When you browse on this site, cookies collect data to enhance your experience and personalize the content and advertising you see.
Visit our Privacy Policy to learn more. By continuing to use the site, you agree to this use of cookies and data.
  • In Hungary
  • List of Countries
  • For 7 days
  • Water Temperature
  • Satellite Maps
  • Weather Map
  • News
  • Weather Widgets
  • user-avatar
    Login

    Hourly Weather Sant Feliu de Guixols

    Today, 21 November, Wednesday

    Time Temperature Precipitation Wind Pressure Humidity
    00:00 +8°C° 0 mm 4 mps 751 mmHg 93%
    01:00 +8°C° 0 mm 4 mps 751 mmHg 92%
    02:00 +9°C° 0 mm 3 mps 752 mmHg 91%
    03:00 +8°C° 0 mm 3 mps 752 mmHg 90%
    04:00 +8°C° 0 mm 2 mps 752 mmHg 90%
    05:00 +8°C° 0 mm 2 mps 753 mmHg 90%
    06:00 +8°C° 0 mm 2 mps 754 mmHg 89%
    07:00 +9°C° 0 mm 2 mps 754 mmHg 85%
    08:00 +10°C° 0 mm 3 mps 755 mmHg 81%
    09:00 +11°C° 0 mm 3 mps 755 mmHg 77%
    10:00 +12°C° 0 mm 3 mps 756 mmHg 72%
    11:00 +14°C° 0 mm 4 mps 756 mmHg 67%
    12:00 +15°C° 0 mm 4 mps 756 mmHg 62%
    13:00 +15°C° 0 mm 4 mps 756 mmHg 63%
    14:00 +15°C° 0 mm 4 mps 756 mmHg 64%
    15:00 +15°C° 0 mm 4 mps 756 mmHg 65%
    16:00 +13°C° 0 mm 4 mps 757 mmHg 73%
    17:00 +12°C° 0 mm 4 mps 758 mmHg 81%
    18:00 +10°C° 0 mm 4 mps 758 mmHg 89%
    19:00 +10°C° 0 mm 4 mps 759 mmHg 89%
    20:00 +8°C° 0 mm 4 mps 759 mmHg 90%
    21:00 +9°C° 0 mm 3 mps 759 mmHg 90%
    22:00 +9°C° 0 mm 3 mps 760 mmHg 89%
    23:00 +9°C° 0 mm 3 mps 760 mmHg 88%

    Tomorrow, 22 November, Thursday

    Time Temperature Precipitation Wind Pressure Humidity
    00:00 +8°C° 0 mm 2 mps 760 mmHg 86%
    01:00 +8°C° 0 mm 2 mps 760 mmHg 84%
    02:00 +8°C° 0 mm 2 mps 760 mmHg 83%
    03:00 +8°C° 0 mm 2 mps 760 mmHg 81%
    04:00 +8°C° 0 mm 2 mps 760 mmHg 80%
    05:00 +9°C° 0 mm 1 mps 760 mmHg 79%
    06:00 +9°C° 0 mm 1 mps 760 mmHg 79%
    07:00 +10°C° 0 mm 1 mps 760 mmHg 75%
    08:00 +11°C° 0 mm 1 mps 761 mmHg 71%
    09:00 +13°C° 0 mm 2 mps 761 mmHg 67%
    10:00 +15°C° 0 mm 2 mps 761 mmHg 61%
    11:00 +16°C° 0 mm 3 mps 761 mmHg 56%
    12:00 +18°C° 0 mm 3 mps 760 mmHg 50%
    13:00 +18°C° 0 mm 3 mps 760 mmHg 53%
    14:00 +17°C° 0 mm 3 mps 760 mmHg 55%
    15:00 +17°C° 0 mm 3 mps 760 mmHg 58%
    16:00 +16°C° 0 mm 3 mps 760 mmHg 63%
    17:00 +13°C° 0 mm 3 mps 760 mmHg 68%
    18:00 +12°C° 0 mm 3 mps 761 mmHg 72%
    19:00 +12°C° 0 mm 3 mps 761 mmHg 73%
    20:00 +11°C° 0 mm 3 mps 761 mmHg 73%
    21:00 +11°C° 0 mm 3 mps 761 mmHg 73%
    22:00 +11°C° 0.1 mm 3 mps 761 mmHg 73%
    23:00 +10°C° 0.1 mm 2 mps 761 mmHg 72%

    Day after tomorrow, 23 November, Friday

    Time Temperature Precipitation Wind Pressure Humidity
    00:00 +10°C° 0.1 mm 2 mps 761 mmHg 72%
    01:00 +10°C° 0.1 mm 2 mps 760 mmHg 71%
    02:00 +10°C° 0.1 mm 2 mps 760 mmHg 71%
    03:00 +10°C° 0.1 mm 2 mps 760 mmHg 70%
    04:00 +12°C° 0.1 mm 2 mps 760 mmHg 72%
    05:00 +12°C° 0.1 mm 2 mps 759 mmHg 74%
    06:00 +12°C° 0.1 mm 2 mps 759 mmHg 76%
    07:00 +13°C° 0.1 mm 2 mps 759 mmHg 74%
    08:00 +14°C° 0.1 mm 2 mps 759 mmHg 73%
    09:00 +14°C° 0.1 mm 2 mps 759 mmHg 72%
    10:00 +14°C° 0.4 mm 2 mps 759 mmHg 76%
    11:00 +13°C° 0.4 mm 3 mps 759 mmHg 80%
    12:00 +12°C° 0.4 mm 3 mps 758 mmHg 84%
    13:00 +13°C° 0.2 mm 3 mps 758 mmHg 83%
    14:00 +13°C° 0.2 mm 3 mps 758 mmHg 82%
    15:00 +14°C° 0.2 mm 3 mps 757 mmHg 81%
    16:00 +13°C° 0 mm 3 mps 757 mmHg 84%
    17:00 +12°C° 0 mm 3 mps 758 mmHg 86%
    18:00 +10°C° 0 mm 4 mps 758 mmHg 89%
    19:00 +10°C° 0 mm 4 mps 758 mmHg 89%
    20:00 +10°C° 0 mm 3 mps 759 mmHg 88%
    21:00 +9°C° 0 mm 3 mps 759 mmHg 88%
    22:00 +9°C° 0 mm 3 mps 760 mmHg 87%
    23:00 +9°C° 0 mm 3 mps 760 mmHg 86%

    24 November, Saturday

    Time Temperature Precipitation Wind Pressure Humidity
    00:00 +9°C° 0 mm 3 mps 760 mmHg 85%
    01:00 +9°C° 0 mm 3 mps 760 mmHg 84%
    02:00 +8°C° 0 mm 3 mps 760 mmHg 83%
    03:00 +8°C° 0 mm 2 mps 760 mmHg 83%
    04:00 +8°C° 0 mm 2 mps 760 mmHg 82%
    05:00 +8°C° 0 mm 2 mps 760 mmHg 82%
    06:00 +8°C° 0 mm 2 mps 760 mmHg 81%
    07:00 +9°C° 0 mm 2 mps 761 mmHg 78%
    08:00 +11°C° 0 mm 1 mps 761 mmHg 75%
    09:00 +12°C° 0 mm 1 mps 761 mmHg 72%
    10:00 +14°C° 0 mm 2 mps 761 mmHg 66%
    11:00 +15°C° 0 mm 2 mps 761 mmHg 60%
    12:00 +16°C° 0 mm 3 mps 760 mmHg 55%
    13:00 +16°C° 0 mm 3 mps 760 mmHg 54%
    14:00 +16°C° 0 mm 3 mps 759 mmHg 54%
    15:00 +15°C° 0 mm 4 mps 759 mmHg 53%
    16:00 +14°C° 0 mm 4 mps 759 mmHg 57%
    17:00 +12°C° 0 mm 4 mps 759 mmHg 61%
    18:00 +10°C° 0 mm 5 mps 759 mmHg 65%
    19:00 +10°C° 0 mm 5 mps 759 mmHg 65%
    20:00 +9°C° 0 mm 5 mps 759 mmHg 66%
    21:00 +9°C° 0 mm 5 mps 759 mmHg 67%
    22:00 +9°C° 0 mm 5 mps 759 mmHg 67%
    23:00 +8°C° 0 mm 6 mps 758 mmHg 67%

    25 November, Sunday

    Time Temperature Precipitation Wind Pressure Humidity
    00:00 +8°C° 0 mm 6 mps 758 mmHg 67%
    01:00 +8°C° 0 mm 6 mps 757 mmHg 66%
    02:00 +8°C° 0 mm 6 mps 757 mmHg 66%
    03:00 +8°C° 0 mm 6 mps 756 mmHg 65%
    04:00 +8°C° 0 mm 6 mps 756 mmHg 65%
    05:00 +8°C° 0 mm 7 mps 755 mmHg 65%
    06:00 +8°C° 0 mm 7 mps 755 mmHg 64%
    07:00 +10°C° 0 mm 7 mps 755 mmHg 62%
    08:00 +11°C° 0 mm 7 mps 755 mmHg 60%
    09:00 +12°C° 0 mm 8 mps 755 mmHg 58%
    10:00 +13°C° 0 mm 8 mps 755 mmHg 56%
    11:00 +15°C° 0 mm 9 mps 755 mmHg 55%
    12:00 +16°C° 0 mm 9 mps 754 mmHg 53%
    13:00 +16°C° 0 mm 8 mps 754 mmHg 56%
    14:00 +16°C° 0 mm 7 mps 754 mmHg 59%
    15:00 +16°C° 0 mm 6 mps 754 mmHg 62%
    16:00 +14°C° 0 mm 5 mps 755 mmHg 69%
    17:00 +12°C° 0 mm 4 mps 755 mmHg 76%
    18:00 +11°C° 0 mm 4 mps 756 mmHg 82%
    19:00 +10°C° 0 mm 4 mps 756 mmHg 83%
    20:00 +10°C° 0 mm 4 mps 756 mmHg 83%
    21:00 +9°C° 0 mm 5 mps 757 mmHg 84%
    22:00 +10°C° 0 mm 4 mps 757 mmHg 85%
    23:00 +10°C° 0 mm 4 mps 756 mmHg 86%

    26 November, Monday

    Time Temperature Precipitation Wind Pressure Humidity
    00:00 +10°C° 0 mm 3 mps 756 mmHg 87%
    01:00 +10°C° 0 mm 3 mps 756 mmHg 87%
    02:00 +10°C° 0 mm 2 mps 756 mmHg 87%
    03:00 +10°C° 0 mm 2 mps 755 mmHg 87%
    04:00 +10°C° 0 mm 3 mps 755 mmHg 88%
    05:00 +10°C° 0 mm 4 mps 756 mmHg 89%
    06:00 +8°C° 0 mm 5 mps 756 mmHg 90%
    07:00 +9°C° 0 mm 6 mps 756 mmHg 82%
    08:00 +10°C° 0 mm 6 mps 757 mmHg 75%
    09:00 +11°C° 0 mm 7 mps 757 mmHg 67%
    10:00 +13°C° 0 mm 6 mps 757 mmHg 63%
    11:00 +14°C° 0 mm 5 mps 758 mmHg 58%
    12:00 +16°C° 0 mm 5 mps 758 mmHg 54%
    13:00 +15°C° 0 mm 4 mps 758 mmHg 57%
    14:00 +15°C° 0 mm 4 mps 758 mmHg 60%
    15:00 +15°C° 0 mm 4 mps 758 mmHg 63%
    16:00 +14°C° 0 mm 4 mps 758 mmHg 68%
    17:00 +12°C° 0 mm 5 mps 759 mmHg 73%
    18:00 +10°C° 0 mm 5 mps 759 mmHg 78%
    19:00 +9°C° 0 mm 5 mps 759 mmHg 77%
    20:00 +9°C° 0 mm 6 mps 759 mmHg 76%
    21:00 +9°C° 0 mm 6 mps 759 mmHg 74%
    22:00 +8°C° 0 mm 6 mps 759 mmHg 71%
    23:00 +8°C° 0 mm 7 mps 758 mmHg 69%
    Show more